Year,Month,Day,Hour,Minute,Value (Times are PST for windspeed in km/hr)
2020,08,07,00,00,2.00
2020,08,07,00,01,5.90
2020,08,07,00,02,0.60
2020,08,07,00,03,0.00
2020,08,07,00,04,1.60
2020,08,07,00,05,0.10
2020,08,07,00,06,0.00
2020,08,07,00,07,0.00
2020,08,07,00,08,0.00
2020,08,07,00,09,0.00
2020,08,07,00,10,0.00
2020,08,07,00,11,0.00
2020,08,07,00,12,0.00
2020,08,07,00,13,0.00
2020,08,07,00,14,0.80
2020,08,07,00,15,3.10
2020,08,07,00,16,2.50
2020,08,07,00,17,2.90
2020,08,07,00,18,2.50
2020,08,07,00,19,4.60
2020,08,07,00,20,10.30
2020,08,07,00,21,6.70
2020,08,07,00,22,3.50
2020,08,07,00,23,0.20
2020,08,07,00,24,0.00
2020,08,07,00,25,3.00
2020,08,07,00,26,10.00
2020,08,07,00,27,5.00
2020,08,07,00,28,4.70
2020,08,07,00,29,2.30
2020,08,07,00,30,8.00
2020,08,07,00,31,8.80
2020,08,07,00,32,4.30
2020,08,07,00,33,11.50
2020,08,07,00,34,10.10
2020,08,07,00,35,5.00
2020,08,07,00,36,5.50
2020,08,07,00,37,2.70
2020,08,07,00,38,4.80
2020,08,07,00,39,4.80
2020,08,07,00,40,4.20
2020,08,07,00,41,7.10
2020,08,07,00,42,8.10
2020,08,07,00,43,5.20
2020,08,07,00,44,1.80
2020,08,07,00,45,3.10
2020,08,07,00,46,0.10
2020,08,07,00,47,1.40
2020,08,07,00,48,2.90
2020,08,07,00,49,0.20
2020,08,07,00,50,5.50
2020,08,07,00,51,6.00
2020,08,07,00,52,5.10
2020,08,07,00,53,3.40
2020,08,07,00,54,5.60
2020,08,07,00,55,1.50
2020,08,07,00,56,1.50
2020,08,07,00,57,2.40
2020,08,07,00,58,6.80
2020,08,07,00,59,6.40
2020,08,07,01,00,6.60
2020,08,07,01,01,7.20
2020,08,07,01,02,9.50
2020,08,07,01,03,12.20
2020,08,07,01,04,12.00
2020,08,07,01,05,8.40
2020,08,07,01,06,7.00
2020,08,07,01,07,8.20
2020,08,07,01,08,7.60
2020,08,07,01,09,7.60
2020,08,07,01,10,6.80
2020,08,07,01,11,5.80
2020,08,07,01,12,6.80
2020,08,07,01,13,9.00
2020,08,07,01,14,6.70
2020,08,07,01,15,8.40
2020,08,07,01,16,7.90
2020,08,07,01,17,8.90
2020,08,07,01,18,9.20
2020,08,07,01,19,9.40
2020,08,07,01,20,7.90
2020,08,07,01,21,5.30
2020,08,07,01,22,6.40
2020,08,07,01,23,6.20
2020,08,07,01,24,9.30
2020,08,07,01,25,6.40
2020,08,07,01,26,7.60
2020,08,07,01,27,7.50
2020,08,07,01,28,8.40
2020,08,07,01,29,5.20
2020,08,07,01,30,9.30
2020,08,07,01,31,9.50
2020,08,07,01,32,10.50
2020,08,07,01,33,8.50
2020,08,07,01,34,5.10
2020,08,07,01,35,8.00
2020,08,07,01,36,10.20
2020,08,07,01,37,10.40
2020,08,07,01,38,12.70
2020,08,07,01,39,5.90
2020,08,07,01,40,8.70
2020,08,07,01,41,8.50
2020,08,07,01,42,8.50
2020,08,07,01,43,8.40
2020,08,07,01,44,9.10
2020,08,07,01,45,10.30
2020,08,07,01,46,12.30
2020,08,07,01,47,11.50
2020,08,07,01,48,13.70
2020,08,07,01,49,8.60
2020,08,07,01,50,13.00
2020,08,07,01,51,10.10
2020,08,07,01,52,7.20
2020,08,07,01,53,11.20
2020,08,07,01,54,8.50
2020,08,07,01,55,9.70
2020,08,07,01,56,9.00
2020,08,07,01,57,8.10
2020,08,07,01,58,10.60
2020,08,07,01,59,13.10
2020,08,07,02,00,10.30
2020,08,07,02,01,11.70
2020,08,07,02,02,8.70
2020,08,07,02,03,5.60
2020,08,07,02,04,9.70
2020,08,07,02,05,6.30
2020,08,07,02,06,8.00
2020,08,07,02,07,6.70
2020,08,07,02,08,6.20
2020,08,07,02,09,9.20
2020,08,07,02,10,8.10
2020,08,07,02,11,10.80
2020,08,07,02,12,8.60
2020,08,07,02,13,5.40
2020,08,07,02,14,8.50
2020,08,07,02,15,7.40
2020,08,07,02,16,7.00
2020,08,07,02,17,9.90
2020,08,07,02,18,7.20
2020,08,07,02,19,15.60
2020,08,07,02,20,11.70
2020,08,07,02,21,6.00
2020,08,07,02,22,6.80
2020,08,07,02,23,14.70
2020,08,07,02,24,16.00
2020,08,07,02,25,14.20
2020,08,07,02,26,8.90
2020,08,07,02,27,9.50
2020,08,07,02,28,8.90
2020,08,07,02,29,6.40
2020,08,07,02,30,7.60
2020,08,07,02,31,8.90
2020,08,07,02,32,9.30
2020,08,07,02,33,11.20
2020,08,07,02,34,5.70
2020,08,07,02,35,13.70
2020,08,07,02,36,6.40
2020,08,07,02,37,7.70
2020,08,07,02,38,8.00
2020,08,07,02,39,10.50
2020,08,07,02,40,7.90
2020,08,07,02,41,7.70
2020,08,07,02,42,7.50
2020,08,07,02,43,11.30
2020,08,07,02,44,11.40
2020,08,07,02,45,7.60
2020,08,07,02,46,10.10
2020,08,07,02,47,10.00
2020,08,07,02,48,2.20
2020,08,07,02,49,9.10
2020,08,07,02,50,7.20
2020,08,07,02,51,7.40
2020,08,07,02,52,6.30
2020,08,07,02,53,4.80
2020,08,07,02,54,5.20
2020,08,07,02,55,7.00
2020,08,07,02,56,3.50
2020,08,07,02,57,4.10
2020,08,07,02,58,7.20
2020,08,07,02,59,8.90
2020,08,07,03,00,4.60
2020,08,07,03,01,3.90
2020,08,07,03,02,3.60
2020,08,07,03,03,0.00
2020,08,07,03,04,0.00
2020,08,07,03,05,4.10
2020,08,07,03,06,4.50
2020,08,07,03,07,5.60
2020,08,07,03,08,2.20
2020,08,07,03,09,0.00
2020,08,07,03,10,1.80
2020,08,07,03,11,5.90
2020,08,07,03,12,4.20
2020,08,07,03,13,5.10
2020,08,07,03,14,1.30
2020,08,07,03,15,0.00
2020,08,07,03,16,0.00
2020,08,07,03,17,0.00
2020,08,07,03,18,0.00
2020,08,07,03,19,0.00
2020,08,07,03,20,0.00
2020,08,07,03,21,0.00
2020,08,07,03,22,0.00
2020,08,07,03,23,0.00
2020,08,07,03,24,0.00
2020,08,07,03,25,0.00
2020,08,07,03,26,0.00
2020,08,07,03,27,0.00
2020,08,07,03,28,0.00
2020,08,07,03,29,0.00
2020,08,07,03,30,0.00
2020,08,07,03,31,0.00
2020,08,07,03,32,0.00
2020,08,07,03,33,0.00
2020,08,07,03,34,0.00
2020,08,07,03,35,0.00
2020,08,07,03,36,0.00
2020,08,07,03,37,0.00
2020,08,07,03,38,0.00
2020,08,07,03,39,0.00
2020,08,07,03,40,0.00
2020,08,07,03,41,0.00
2020,08,07,03,42,0.00
2020,08,07,03,43,0.00
2020,08,07,03,44,0.00
2020,08,07,03,45,0.00
2020,08,07,03,46,0.00
2020,08,07,03,47,0.00
2020,08,07,03,48,0.00
2020,08,07,03,49,0.00
2020,08,07,03,50,0.00
2020,08,07,03,51,0.00
2020,08,07,03,52,0.00
2020,08,07,03,53,0.00
2020,08,07,03,54,0.00
2020,08,07,03,55,0.00
2020,08,07,03,56,0.00
2020,08,07,03,57,0.00
2020,08,07,03,58,0.00
2020,08,07,03,59,0.00
2020,08,07,04,00,0.00
2020,08,07,04,01,0.00
2020,08,07,04,02,0.00
2020,08,07,04,03,0.00
2020,08,07,04,04,0.00
2020,08,07,04,05,0.00
2020,08,07,04,06,0.00
2020,08,07,04,07,0.00
2020,08,07,04,08,0.00
2020,08,07,04,09,0.00
2020,08,07,04,10,0.00
2020,08,07,04,11,0.00
2020,08,07,04,12,0.00
2020,08,07,04,13,0.00
2020,08,07,04,14,0.00
2020,08,07,04,15,0.00
2020,08,07,04,16,0.00
2020,08,07,04,17,0.00
2020,08,07,04,18,0.00
2020,08,07,04,19,0.00
2020,08,07,04,20,0.00
2020,08,07,04,21,0.00
2020,08,07,04,22,0.00
2020,08,07,04,23,0.00
2020,08,07,04,24,0.00
2020,08,07,04,25,0.00
2020,08,07,04,26,0.00
2020,08,07,04,27,0.00
2020,08,07,04,28,0.00
2020,08,07,04,29,0.00
2020,08,07,04,30,0.00
2020,08,07,04,31,0.00
2020,08,07,04,32,0.00
2020,08,07,04,33,0.00
2020,08,07,04,34,0.00
2020,08,07,04,35,0.00
2020,08,07,04,36,0.00
2020,08,07,04,37,0.00
2020,08,07,04,38,0.00
2020,08,07,04,39,0.00
2020,08,07,04,40,0.00
2020,08,07,04,41,0.00
2020,08,07,04,42,0.00
2020,08,07,04,43,0.00
2020,08,07,04,44,0.00
2020,08,07,04,45,0.00
2020,08,07,04,46,0.00
2020,08,07,04,47,0.00
2020,08,07,04,48,0.00
2020,08,07,04,49,0.00
2020,08,07,04,50,0.00
2020,08,07,04,51,0.00
2020,08,07,04,52,0.00
2020,08,07,04,53,0.00
2020,08,07,04,54,0.00
2020,08,07,04,55,0.00
2020,08,07,04,56,0.00
2020,08,07,04,57,0.00
2020,08,07,04,58,0.00
2020,08,07,04,59,0.00
2020,08,07,05,00,0.00
2020,08,07,05,01,0.00
2020,08,07,05,02,0.00
2020,08,07,05,03,0.00
2020,08,07,05,04,0.00
2020,08,07,05,05,0.00
2020,08,07,05,06,0.00
2020,08,07,05,07,0.00
2020,08,07,05,08,0.00
2020,08,07,05,09,0.00
2020,08,07,05,10,0.00
2020,08,07,05,11,0.00
2020,08,07,05,12,0.00
2020,08,07,05,13,0.00
2020,08,07,05,14,0.00
2020,08,07,05,15,0.00
2020,08,07,05,16,0.00
2020,08,07,05,17,0.00
2020,08,07,05,18,0.00
2020,08,07,05,19,0.00
2020,08,07,05,20,0.00
2020,08,07,05,21,0.00
2020,08,07,05,22,0.00
2020,08,07,05,23,0.00
2020,08,07,05,24,0.00
2020,08,07,05,25,0.00
2020,08,07,05,26,0.00
2020,08,07,05,27,0.00
2020,08,07,05,28,0.00
2020,08,07,05,29,0.00
2020,08,07,05,30,0.00
2020,08,07,05,31,0.00
2020,08,07,05,32,0.00
2020,08,07,05,33,0.00
2020,08,07,05,34,0.00
2020,08,07,05,35,0.00
2020,08,07,05,36,0.00
2020,08,07,05,37,0.00
2020,08,07,05,38,0.00
2020,08,07,05,39,0.00
2020,08,07,05,40,0.00
2020,08,07,05,41,0.00
2020,08,07,05,42,0.00
2020,08,07,05,43,0.00
2020,08,07,05,44,0.00
2020,08,07,05,45,0.80
2020,08,07,05,46,0.00
2020,08,07,05,47,0.00
2020,08,07,05,48,0.00
2020,08,07,05,49,0.00
2020,08,07,05,50,0.00
2020,08,07,05,51,0.00
2020,08,07,05,52,0.00
2020,08,07,05,53,0.00
2020,08,07,05,54,0.00
2020,08,07,05,55,0.00
2020,08,07,05,56,0.00
2020,08,07,05,57,0.00
2020,08,07,05,58,0.00
2020,08,07,05,59,0.00
2020,08,07,06,00,0.00
2020,08,07,06,01,2.50
2020,08,07,06,02,4.30
2020,08,07,06,03,2.10
2020,08,07,06,04,1.30
2020,08,07,06,05,2.00
2020,08,07,06,06,0.00
2020,08,07,06,07,0.00
2020,08,07,06,08,0.00
2020,08,07,06,09,0.00
2020,08,07,06,10,0.40
2020,08,07,06,11,3.10
2020,08,07,06,12,1.40
2020,08,07,06,13,1.90
2020,08,07,06,14,1.90
2020,08,07,06,15,0.00
2020,08,07,06,16,0.00
2020,08,07,06,17,0.00
2020,08,07,06,18,0.90
2020,08,07,06,19,0.00
2020,08,07,06,20,0.00
2020,08,07,06,21,0.00
2020,08,07,06,22,0.00
2020,08,07,06,23,0.00
2020,08,07,06,24,0.00
2020,08,07,06,25,0.00
2020,08,07,06,26,0.00
2020,08,07,06,27,0.00
2020,08,07,06,28,0.00
2020,08,07,06,29,0.00
2020,08,07,06,30,0.00
2020,08,07,06,31,0.70
2020,08,07,06,32,0.00
2020,08,07,06,33,0.00
2020,08,07,06,34,0.00
2020,08,07,06,35,0.00
2020,08,07,06,36,0.00
2020,08,07,06,37,0.00
2020,08,07,06,38,0.00
2020,08,07,06,39,0.00
2020,08,07,06,40,0.00
2020,08,07,06,41,0.00
2020,08,07,06,42,0.00
2020,08,07,06,43,0.00
2020,08,07,06,44,0.00
2020,08,07,06,45,0.00
2020,08,07,06,46,0.00
2020,08,07,06,47,0.00
2020,08,07,06,48,0.00
2020,08,07,06,49,0.00
2020,08,07,06,50,0.00
2020,08,07,06,51,0.00
2020,08,07,06,52,0.00
2020,08,07,06,53,2.20
2020,08,07,06,54,1.50
2020,08,07,06,55,2.00
2020,08,07,06,56,1.20
2020,08,07,06,57,2.10
2020,08,07,06,58,0.20
2020,08,07,06,59,0.90
2020,08,07,07,00,2.50
2020,08,07,07,01,2.70
2020,08,07,07,02,1.30
2020,08,07,07,03,1.20
2020,08,07,07,04,4.40
2020,08,07,07,05,3.10
2020,08,07,07,06,0.20
2020,08,07,07,07,0.20
2020,08,07,07,08,3.10
2020,08,07,07,09,2.70
2020,08,07,07,10,1.10
2020,08,07,07,11,2.60
2020,08,07,07,12,0.60
2020,08,07,07,13,0.00
2020,08,07,07,14,0.00
2020,08,07,07,15,0.00
2020,08,07,07,16,5.30
2020,08,07,07,17,2.40
2020,08,07,07,18,0.00
2020,08,07,07,19,0.90
2020,08,07,07,20,2.50
2020,08,07,07,21,1.80
2020,08,07,07,22,1.50
2020,08,07,07,23,1.20
2020,08,07,07,24,0.00
2020,08,07,07,25,1.10
2020,08,07,07,26,2.40
2020,08,07,07,27,1.60
2020,08,07,07,28,0.40
2020,08,07,07,29,1.60
2020,08,07,07,30,0.40
2020,08,07,07,31,0.60
2020,08,07,07,32,0.00
2020,08,07,07,33,0.30
2020,08,07,07,34,5.10
2020,08,07,07,35,5.60
2020,08,07,07,36,2.90
2020,08,07,07,37,0.60
2020,08,07,07,38,2.70
2020,08,07,07,39,7.00
2020,08,07,07,40,4.00
2020,08,07,07,41,7.00
2020,08,07,07,42,5.80
2020,08,07,07,43,3.60
2020,08,07,07,44,5.60
2020,08,07,07,45,5.20
2020,08,07,07,46,4.70
2020,08,07,07,47,5.00
2020,08,07,07,48,4.90
2020,08,07,07,49,3.90
2020,08,07,07,50,4.10
2020,08,07,07,51,4.90
2020,08,07,07,52,5.60
2020,08,07,07,53,5.70
2020,08,07,07,54,3.80
2020,08,07,07,55,3.00
2020,08,07,07,56,1.70
2020,08,07,07,57,4.20
2020,08,07,07,58,4.90
2020,08,07,07,59,2.40
2020,08,07,08,00,4.50
2020,08,07,08,01,2.60
2020,08,07,08,02,7.30
2020,08,07,08,03,1.10
2020,08,07,08,04,0.00
2020,08,07,08,05,6.50
2020,08,07,08,06,2.00
2020,08,07,08,07,3.90
2020,08,07,08,08,6.30
2020,08,07,08,09,1.90
2020,08,07,08,10,5.30
2020,08,07,08,11,4.70
2020,08,07,08,12,2.40
2020,08,07,08,13,5.20
2020,08,07,08,14,5.30
2020,08,07,08,15,0.60
2020,08,07,08,16,3.80
2020,08,07,08,17,2.60
2020,08,07,08,18,4.90
2020,08,07,08,19,1.70
2020,08,07,08,20,0.10
2020,08,07,08,21,3.60
2020,08,07,08,22,2.00
2020,08,07,08,23,3.40
2020,08,07,08,24,1.70
2020,08,07,08,25,3.00
2020,08,07,08,26,1.40
2020,08,07,08,27,2.30
2020,08,07,08,28,0.10
2020,08,07,08,29,0.00
2020,08,07,08,30,2.10
2020,08,07,08,31,1.50
2020,08,07,08,32,5.10
2020,08,07,08,33,4.20
2020,08,07,08,34,1.50
2020,08,07,08,35,1.20
2020,08,07,08,36,1.40
2020,08,07,08,37,2.80
2020,08,07,08,38,1.90
2020,08,07,08,39,5.40
2020,08,07,08,40,3.10
2020,08,07,08,41,2.30
2020,08,07,08,42,2.40
2020,08,07,08,43,4.90
2020,08,07,08,44,6.10
2020,08,07,08,45,4.80
2020,08,07,08,46,2.20
2020,08,07,08,47,4.90
2020,08,07,08,48,1.70
2020,08,07,08,49,1.30
2020,08,07,08,50,5.00
2020,08,07,08,51,7.00
2020,08,07,08,52,6.70
2020,08,07,08,53,6.90
2020,08,07,08,54,4.90
2020,08,07,08,55,4.80
2020,08,07,08,56,8.30
2020,08,07,08,57,4.80
2020,08,07,08,58,6.60
2020,08,07,08,59,3.10
2020,08,07,09,00,3.70
2020,08,07,09,01,11.60
2020,08,07,09,02,8.40
2020,08,07,09,03,3.90
2020,08,07,09,04,4.40
2020,08,07,09,05,5.20
2020,08,07,09,06,3.50
2020,08,07,09,07,5.00
2020,08,07,09,08,3.70
2020,08,07,09,09,3.50
2020,08,07,09,10,6.20
2020,08,07,09,11,5.10
2020,08,07,09,12,8.00
2020,08,07,09,13,7.40
2020,08,07,09,14,5.40
2020,08,07,09,15,5.10
2020,08,07,09,16,5.70
2020,08,07,09,17,8.80
2020,08,07,09,18,8.00
2020,08,07,09,19,4.90
2020,08,07,09,20,3.90
2020,08,07,09,21,8.20
2020,08,07,09,22,10.80
2020,08,07,09,23,7.80
2020,08,07,09,24,7.70
2020,08,07,09,25,6.40
2020,08,07,09,26,6.10
2020,08,07,09,27,3.90
2020,08,07,09,28,2.80
2020,08,07,09,29,1.70
2020,08,07,09,30,2.30
2020,08,07,09,31,5.50
2020,08,07,09,32,7.70
2020,08,07,09,33,3.40
2020,08,07,09,34,2.70
2020,08,07,09,35,1.10
2020,08,07,09,36,1.80
2020,08,07,09,37,1.50
2020,08,07,09,38,5.00
2020,08,07,09,39,3.90
2020,08,07,09,40,4.00
2020,08,07,09,41,5.40
2020,08,07,09,42,4.70
2020,08,07,09,43,4.10
2020,08,07,09,44,4.80
2020,08,07,09,45,7.80
2020,08,07,09,46,10.80
2020,08,07,09,47,5.40
2020,08,07,09,48,5.90
2020,08,07,09,49,4.10
2020,08,07,09,50,4.90
2020,08,07,09,51,6.20
2020,08,07,09,52,5.00
2020,08,07,09,53,1.80
2020,08,07,09,54,5.10
2020,08,07,09,55,6.40
2020,08,07,09,56,4.10
2020,08,07,09,57,5.00
2020,08,07,09,58,3.30
2020,08,07,09,59,4.40
2020,08,07,10,00,6.80
2020,08,07,10,01,6.20
2020,08,07,10,02,2.80
2020,08,07,10,03,3.10
2020,08,07,10,04,3.50
2020,08,07,10,05,0.80
2020,08,07,10,06,2.10
2020,08,07,10,07,2.50
2020,08,07,10,08,2.90
2020,08,07,10,09,11.80
2020,08,07,10,10,8.90
2020,08,07,10,11,7.20
2020,08,07,10,12,3.40
2020,08,07,10,13,6.10
2020,08,07,10,14,10.90
2020,08,07,10,15,8.20
2020,08,07,10,16,5.90
2020,08,07,10,17,4.30
2020,08,07,10,18,6.00
2020,08,07,10,19,4.70
2020,08,07,10,20,6.10
2020,08,07,10,21,8.10
2020,08,07,10,22,2.40
2020,08,07,10,23,3.10
2020,08,07,10,24,6.20
2020,08,07,10,25,4.90
2020,08,07,10,26,4.50
2020,08,07,10,27,2.80
2020,08,07,10,28,1.90
2020,08,07,10,29,4.80
2020,08,07,10,30,4.30
2020,08,07,10,31,5.50
2020,08,07,10,32,6.40
2020,08,07,10,33,4.90
2020,08,07,10,34,4.40
2020,08,07,10,35,4.30
2020,08,07,10,36,7.90
2020,08,07,10,37,4.40
2020,08,07,10,38,4.40
2020,08,07,10,39,5.30
2020,08,07,10,40,2.40
2020,08,07,10,41,4.10
2020,08,07,10,42,2.50
2020,08,07,10,43,6.00
2020,08,07,10,44,4.80
2020,08,07,10,45,1.00
2020,08,07,10,46,2.10
2020,08,07,10,47,5.80
2020,08,07,10,48,5.20
2020,08,07,10,49,5.60
2020,08,07,10,50,4.10
2020,08,07,10,51,2.60
2020,08,07,10,52,2.30
2020,08,07,10,53,3.90
2020,08,07,10,54,0.80
2020,08,07,10,55,2.30
2020,08,07,10,56,3.10
2020,08,07,10,57,5.60
2020,08,07,10,58,4.70
2020,08,07,10,59,5.00
2020,08,07,11,00,3.80
2020,08,07,11,01,4.60
2020,08,07,11,02,0.90
2020,08,07,11,03,3.00
2020,08,07,11,04,4.70
2020,08,07,11,05,3.30
2020,08,07,11,06,3.70
2020,08,07,11,07,5.00
2020,08,07,11,08,5.50
2020,08,07,11,09,0.90
2020,08,07,11,10,3.50
2020,08,07,11,11,7.80
2020,08,07,11,12,6.80
2020,08,07,11,13,5.40
2020,08,07,11,14,4.20
2020,08,07,11,15,7.30
2020,08,07,11,16,3.70
2020,08,07,11,17,1.70
2020,08,07,11,18,4.10
2020,08,07,11,19,3.50
2020,08,07,11,20,6.50
2020,08,07,11,21,5.70
2020,08,07,11,22,6.80
2020,08,07,11,23,3.90
2020,08,07,11,24,5.10
2020,08,07,11,25,7.00
2020,08,07,11,26,4.30
2020,08,07,11,27,7.10
2020,08,07,11,28,5.70
2020,08,07,11,29,5.00
2020,08,07,11,30,6.00
2020,08,07,11,31,4.10
2020,08,07,11,32,5.80
2020,08,07,11,33,6.00
2020,08,07,11,34,3.80
2020,08,07,11,35,4.30
2020,08,07,11,36,5.20
2020,08,07,11,37,5.10
2020,08,07,11,38,4.10
2020,08,07,11,39,6.40
2020,08,07,11,40,4.70
2020,08,07,11,41,5.20
2020,08,07,11,42,7.00
2020,08,07,11,43,10.70
2020,08,07,11,44,9.60
2020,08,07,11,45,9.60
2020,08,07,11,46,9.60
2020,08,07,11,47,8.60
2020,08,07,11,48,3.10
2020,08,07,11,49,2.50
2020,08,07,11,50,6.80
2020,08,07,11,51,4.70
2020,08,07,11,52,0.60
2020,08,07,11,53,4.20
2020,08,07,11,54,3.00
2020,08,07,11,55,0.20
2020,08,07,11,56,3.10
2020,08,07,11,57,5.70
2020,08,07,11,58,0.70
2020,08,07,11,59,4.20
2020,08,07,12,00,3.40
2020,08,07,12,01,3.10
2020,08,07,12,02,2.90
2020,08,07,12,03,6.00
2020,08,07,12,04,4.50
2020,08,07,12,05,5.10
2020,08,07,12,06,5.90
2020,08,07,12,07,3.30
2020,08,07,12,08,4.40
2020,08,07,12,09,3.80
2020,08,07,12,10,5.40
2020,08,07,12,11,8.80
2020,08,07,12,12,6.20
2020,08,07,12,13,2.60
2020,08,07,12,14,5.40
2020,08,07,12,15,6.10
2020,08,07,12,16,8.50
2020,08,07,12,17,5.40
2020,08,07,12,18,6.30
2020,08,07,12,19,6.70
2020,08,07,12,20,7.00
2020,08,07,12,21,4.10
2020,08,07,12,22,3.50
2020,08,07,12,23,6.80
2020,08,07,12,24,6.10
2020,08,07,12,25,7.80
2020,08,07,12,26,4.40
2020,08,07,12,27,11.10
2020,08,07,12,28,13.90
2020,08,07,12,29,9.40
2020,08,07,12,30,11.60
2020,08,07,12,31,11.30
2020,08,07,12,32,16.50
2020,08,07,12,33,9.80
2020,08,07,12,34,8.40
2020,08,07,12,35,8.90
2020,08,07,12,36,6.40
2020,08,07,12,37,7.90
2020,08,07,12,38,14.00
2020,08,07,12,39,7.10
2020,08,07,12,40,8.40
2020,08,07,12,41,9.80
2020,08,07,12,42,11.70
2020,08,07,12,43,6.80
2020,08,07,12,44,5.20
2020,08,07,12,45,4.70
2020,08,07,12,46,5.50
2020,08,07,12,47,3.70
2020,08,07,12,48,6.30
2020,08,07,12,49,4.30
2020,08,07,12,50,12.40
2020,08,07,12,51,9.40
2020,08,07,12,52,5.70
2020,08,07,12,53,5.70
2020,08,07,12,54,4.30
2020,08,07,12,55,5.10
2020,08,07,12,56,7.40
2020,08,07,12,57,4.90
2020,08,07,12,58,4.70
2020,08,07,12,59,4.80
2020,08,07,13,00,5.60
2020,08,07,13,01,4.30
2020,08,07,13,02,4.10
2020,08,07,13,03,3.10
2020,08,07,13,04,5.60
2020,08,07,13,05,4.80
2020,08,07,13,06,4.60
2020,08,07,13,07,4.80
2020,08,07,13,08,3.60
2020,08,07,13,09,4.70
2020,08,07,13,10,5.20
2020,08,07,13,11,4.60
2020,08,07,13,12,4.40
2020,08,07,13,13,4.60
2020,08,07,13,14,11.30
2020,08,07,13,15,4.80
2020,08,07,13,16,6.80
2020,08,07,13,17,6.10
2020,08,07,13,18,9.30
2020,08,07,13,19,2.10
2020,08,07,13,20,5.70
2020,08,07,13,21,5.40
2020,08,07,13,22,6.20
2020,08,07,13,23,5.00
2020,08,07,13,24,7.00
2020,08,07,13,25,6.30
2020,08,07,13,26,7.10
2020,08,07,13,27,7.00
2020,08,07,13,28,9.70
2020,08,07,13,29,6.30
2020,08,07,13,30,4.70
2020,08,07,13,31,3.90
2020,08,07,13,32,5.50
2020,08,07,13,33,7.70
2020,08,07,13,34,7.60
2020,08,07,13,35,4.30
2020,08,07,13,36,8.10
2020,08,07,13,37,1.40
2020,08,07,13,38,4.90
2020,08,07,13,39,5.10
2020,08,07,13,40,4.10
2020,08,07,13,41,7.20
2020,08,07,13,42,6.80
2020,08,07,13,43,5.20
2020,08,07,13,44,8.10
2020,08,07,13,45,6.40
2020,08,07,13,46,6.80
2020,08,07,13,47,4.80
2020,08,07,13,48,6.60
2020,08,07,13,49,8.20
2020,08,07,13,50,8.30
2020,08,07,13,51,7.40
2020,08,07,13,52,11.00
2020,08,07,13,53,8.40
2020,08,07,13,54,5.60
2020,08,07,13,55,8.00
2020,08,07,13,56,10.10
2020,08,07,13,57,10.00
2020,08,07,13,58,7.90
2020,08,07,13,59,7.10
2020,08,07,14,00,10.50
2020,08,07,14,01,11.70
2020,08,07,14,02,8.80
2020,08,07,14,03,9.10
2020,08,07,14,04,6.80
2020,08,07,14,05,6.10
2020,08,07,14,06,9.00
2020,08,07,14,07,5.60
2020,08,07,14,08,2.50
2020,08,07,14,09,0.00
2020,08,07,14,10,0.00
2020,08,07,14,11,2.40
2020,08,07,14,12,7.50
2020,08,07,14,13,4.10
2020,08,07,14,14,2.20
2020,08,07,14,15,1.60
2020,08,07,14,16,2.60
2020,08,07,14,17,7.60
2020,08,07,14,18,4.30
2020,08,07,14,19,5.30
2020,08,07,14,20,1.80
2020,08,07,14,21,1.70
2020,08,07,14,22,2.80
2020,08,07,14,23,1.30
2020,08,07,14,24,4.00
2020,08,07,14,25,4.90
2020,08,07,14,26,1.70
2020,08,07,14,27,3.00
2020,08,07,14,28,3.90
2020,08,07,14,29,0.90
2020,08,07,14,30,3.90
2020,08,07,14,31,10.10
2020,08,07,14,32,6.40
2020,08,07,14,33,2.40
2020,08,07,14,34,5.70
2020,08,07,14,35,5.60
2020,08,07,14,36,3.80
2020,08,07,14,37,1.00
2020,08,07,14,38,0.00
2020,08,07,14,39,0.00
2020,08,07,14,40,3.00
2020,08,07,14,41,2.10
2020,08,07,14,42,5.90
2020,08,07,14,43,5.70
2020,08,07,14,44,4.50
2020,08,07,14,45,4.50
2020,08,07,14,46,8.60
2020,08,07,14,47,7.70
2020,08,07,14,48,9.70
2020,08,07,14,49,5.50
2020,08,07,14,50,3.80
2020,08,07,14,51,6.80
2020,08,07,14,52,6.70
2020,08,07,14,53,4.90
2020,08,07,14,54,7.60
2020,08,07,14,55,5.30
2020,08,07,14,56,9.70
2020,08,07,14,57,6.10
2020,08,07,14,58,3.60
2020,08,07,14,59,5.90
2020,08,07,15,00,4.90
2020,08,07,15,01,6.10
2020,08,07,15,02,5.10
2020,08,07,15,03,3.70
2020,08,07,15,04,3.80
2020,08,07,15,05,5.80
2020,08,07,15,06,8.10
2020,08,07,15,07,3.10
2020,08,07,15,08,3.50
2020,08,07,15,09,2.70
2020,08,07,15,10,2.50
2020,08,07,15,11,3.40
2020,08,07,15,12,4.60
2020,08,07,15,13,3.60
2020,08,07,15,14,0.60
2020,08,07,15,15,4.40
2020,08,07,15,16,4.30
2020,08,07,15,17,5.20
2020,08,07,15,18,1.80
2020,08,07,15,19,0.20
2020,08,07,15,20,4.10
2020,08,07,15,21,4.60
2020,08,07,15,22,0.80
2020,08,07,15,23,1.90
2020,08,07,15,24,4.10
2020,08,07,15,25,0.80
2020,08,07,15,26,5.10
2020,08,07,15,27,6.20
2020,08,07,15,28,5.90
2020,08,07,15,29,2.00
2020,08,07,15,30,1.00
2020,08,07,15,31,5.00
2020,08,07,15,32,5.30
2020,08,07,15,33,3.80
2020,08,07,15,34,1.10
2020,08,07,15,35,0.00
2020,08,07,15,36,3.70
2020,08,07,15,37,2.60
2020,08,07,15,38,1.90
2020,08,07,15,39,1.30
2020,08,07,15,40,0.50
2020,08,07,15,41,1.50
2020,08,07,15,42,3.50
2020,08,07,15,43,5.00
2020,08,07,15,44,0.00
2020,08,07,15,45,4.60
2020,08,07,15,46,4.80
2020,08,07,15,47,2.50
2020,08,07,15,48,1.40
2020,08,07,15,49,1.30
2020,08,07,15,50,1.50
2020,08,07,15,51,2.70
2020,08,07,15,52,1.20
2020,08,07,15,53,3.10
2020,08,07,15,54,3.40
2020,08,07,15,55,6.10
2020,08,07,15,56,4.10
2020,08,07,15,57,5.30
2020,08,07,15,58,4.70
2020,08,07,15,59,1.30
2020,08,07,16,00,2.90
2020,08,07,16,01,4.60
2020,08,07,16,02,4.00
2020,08,07,16,03,1.90
2020,08,07,16,04,1.40
2020,08,07,16,05,0.00
2020,08,07,16,06,0.00
2020,08,07,16,07,0.70
2020,08,07,16,08,0.00
2020,08,07,16,09,1.30
2020,08,07,16,10,2.90
2020,08,07,16,11,2.90
2020,08,07,16,12,4.30
2020,08,07,16,13,5.50
2020,08,07,16,14,2.90
2020,08,07,16,15,0.10
2020,08,07,16,16,0.00
2020,08,07,16,17,1.80
2020,08,07,16,18,0.00
2020,08,07,16,19,0.00
2020,08,07,16,20,0.00
2020,08,07,16,21,3.00
2020,08,07,16,22,5.40
2020,08,07,16,23,1.00
2020,08,07,16,24,0.00
2020,08,07,16,25,0.00
2020,08,07,16,26,0.50
2020,08,07,16,27,0.20
2020,08,07,16,28,0.00
2020,08,07,16,29,0.00
2020,08,07,16,30,0.00
2020,08,07,16,31,0.00
2020,08,07,16,32,0.00
2020,08,07,16,33,0.00
2020,08,07,16,34,0.00
2020,08,07,16,35,0.80
2020,08,07,16,36,0.00
2020,08,07,16,37,0.00
2020,08,07,16,38,0.00
2020,08,07,16,39,0.00
2020,08,07,16,40,0.00
2020,08,07,16,41,0.00
2020,08,07,16,42,0.00
2020,08,07,16,43,0.00
2020,08,07,16,44,0.00
2020,08,07,16,45,0.00
2020,08,07,16,46,0.00
2020,08,07,16,47,0.00
2020,08,07,16,48,0.00
2020,08,07,16,49,0.00
2020,08,07,16,50,0.00
2020,08,07,16,51,0.00
2020,08,07,16,52,0.00
2020,08,07,16,53,0.00
2020,08,07,16,54,0.00
2020,08,07,16,55,0.00
2020,08,07,16,56,0.00
2020,08,07,16,57,0.00
2020,08,07,16,58,0.00
2020,08,07,16,59,0.00
2020,08,07,17,00,0.00
2020,08,07,17,01,0.00
2020,08,07,17,02,0.00
2020,08,07,17,03,0.00
2020,08,07,17,04,0.00
2020,08,07,17,05,0.00
2020,08,07,17,06,0.00
2020,08,07,17,07,0.00
2020,08,07,17,08,0.00
2020,08,07,17,09,0.00
2020,08,07,17,10,0.00
2020,08,07,17,11,0.00
2020,08,07,17,12,0.00
2020,08,07,17,13,0.00
2020,08,07,17,14,0.00
2020,08,07,17,15,0.00
2020,08,07,17,16,0.80
2020,08,07,17,17,1.90
2020,08,07,17,18,1.00
2020,08,07,17,19,0.10
2020,08,07,17,20,0.80
2020,08,07,17,21,0.00
2020,08,07,17,22,0.00
2020,08,07,17,23,0.00
2020,08,07,17,24,0.00
2020,08,07,17,25,0.00
2020,08,07,17,26,0.00
2020,08,07,17,27,0.00
2020,08,07,17,28,0.00
2020,08,07,17,29,0.00
2020,08,07,17,30,0.00
2020,08,07,17,31,0.00
2020,08,07,17,32,2.70
2020,08,07,17,33,2.90
2020,08,07,17,34,2.50
2020,08,07,17,35,0.00
2020,08,07,17,36,1.50
2020,08,07,17,37,1.00
2020,08,07,17,38,0.70
2020,08,07,17,39,0.70
2020,08,07,17,40,0.00
2020,08,07,17,41,0.00
2020,08,07,17,42,0.00
2020,08,07,17,43,0.00
2020,08,07,17,44,3.60
2020,08,07,17,45,3.00
2020,08,07,17,46,3.70
2020,08,07,17,47,2.70
2020,08,07,17,48,3.00
2020,08,07,17,49,4.10
2020,08,07,17,50,5.20
2020,08,07,17,51,6.50
2020,08,07,17,52,4.00
2020,08,07,17,53,2.50
2020,08,07,17,54,2.30
2020,08,07,17,55,3.90
2020,08,07,17,56,6.10
2020,08,07,17,57,3.30
2020,08,07,17,58,2.60
2020,08,07,17,59,6.50
2020,08,07,18,00,7.10
2020,08,07,18,01,7.20
2020,08,07,18,02,5.40
2020,08,07,18,03,4.00
2020,08,07,18,04,2.80